GW0547 Weather Reports


time (UTC)temp
C
wind
direction
speed
KPH
gust
KPH
rain 1hr
cm
rain 24hr
cm
rain mn
cm
humidity
%
barometer
mb
20260504110524 7 206 8.0 20.9 0.00 0.00 0.00 67 1009.4
20260504100522 5 194 4.8 11.3 0.00 0.00 0.00 68 1009.4
20260504081542 6 214 4.8 11.3 0.00 0.00 0.00 66 1009.4
20260504081025 6 202 4.8 9.7 0.00 0.00 0.00 65 1009.4
20260504080525 6 219 3.2 8.0 0.00 0.00 0.00 65 1009.4
20260504050523 8 180 1.6 4.8 0.00 0.00 0.00 66 1009.6
20260504045523 8 180 3.2 6.4 0.00 0.00 0.00 65 1009.8
20260504045021 8 186 1.6 6.4 0.00 0.00 0.00 66 1009.8
20260504044541 8 186 3.2 6.4 0.00 0.00 0.00 65 1009.8
20260504044028 8 186 1.6 6.4 0.00 0.00 0.00 65 1009.7
20260504043525 8 186 3.2 6.4 0.00 0.00 0.00 66 1009.8
20260504043038 8 203 3.2 4.8 0.00 0.00 0.00 67 1009.8
20260504042525 8 203 1.6 4.8 0.00 0.00 0.00 67 1009.8
20260504042024 8 203 1.6 4.8 0.00 0.00 0.00 66 1009.8
20260504041544 8 203 1.6 4.8 0.00 0.00 0.00 66 1009.9
20260504041024 8 218 0.0 4.8 0.00 0.00 0.00 66 1009.9
20260504040524 7 0 0.0 6.4 0.00 0.00 0.00 66 1010.0
20260504040048 7 0 1.6 6.4 0.00 0.00 0.00 66 1009.9
20260504035524 7 198 3.2 6.4 0.00 0.00 0.00 67 1009.9
20260504035024 7 182 3.2 6.4 0.00 0.00 0.00 67 1009.8
20260504034543 7 182 3.2 6.4 0.00 0.00 0.00 68 1009.9
20260504034029 7 195 3.2 6.4 0.00 0.00 0.00 68 1010.0
20260504033524 8 221 1.6 4.8 0.00 0.00 0.00 68 1010.0
20260504033041 8 260 1.6 3.2 0.00 0.00 0.00 67 1010.1
20260504032525 8 0 1.6 4.8 0.00 0.00 0.00 67 1010.2
20260504032025 8 0 0.0 6.4 0.00 0.00 0.00 66 1010.3
20260504031536 8 294 3.2 6.4 0.00 0.00 0.00 66 1010.3
20260504031026 8 250 1.6 16.1 0.00 0.00 0.00 65 1010.4
20260504030524 8 272 3.2 16.1 0.00 0.00 0.00 65 1010.4
20260504030043 8 229 6.4 16.1 0.00 0.00 0.00 65 1010.5
20260504025525 8 279 4.8 14.5 0.00 0.00 0.00 65 1010.6
20260504025024 8 340 1.6 17.7 0.00 0.00 0.00 66 1010.7
20260504024545 8 299 4.8 17.7 0.00 0.00 0.00 65 1010.8
20260504024025 8 278 4.8 14.5 0.00 0.00 0.00 65 1010.8
20260504023525 8 294 3.2 6.4 0.00 0.00 0.00 65 1010.9
20260504023041 8 293 1.6 4.8 0.00 0.00 0.00 65 1010.8
20260504022528 8 240 1.6 4.8 0.00 0.00 0.00 64 1010.7
20260504022024 8 0 1.6 4.8 0.00 0.00 0.00 64 1010.7
20260504021540 8 292 0.0 14.5 0.00 0.00 0.00 64 1010.7
20260504021022 8 275 3.2 14.5 0.00 0.00 0.00 64 1010.7
20260504020524 8 320 3.2 16.1 0.00 0.00 0.00 64 1010.6
20260504020038 8 300 4.8 16.1 0.00 0.00 0.00 64 1010.6
20260504015525 8 300 1.6 17.7 0.00 0.00 0.00 64 1010.6
20260504015031 8 221 1.6 17.7 0.00 0.00 0.00 64 1010.5
20260504014554 8 209 8.0 17.7 0.00 0.00 0.00 64 1010.5
20260504014027 8 298 0.0 11.3 0.00 0.00 0.00 65 1010.6
20260504013524 8 178 4.8 11.3 0.00 0.00 0.00 65 1010.6
20260504013041 8 221 1.6 11.3 0.00 0.00 0.00 64 1010.6
20260504012527 8 232 0.0 6.4 0.00 0.00 0.00 64 1010.4
20260504012024 8 0 0.0 8.0 0.00 0.00 0.00 64 1010.4
20260504011541 8 230 3.2 8.0 0.00 0.00 0.00 63 1010.4
20260504011024 8 219 3.2 12.9 0.00 0.00 0.00 63 1010.4
20260504010527 8 17 3.2 12.9 0.00 0.00 0.00 62 1010.3
20260504010039 8 300 4.8 14.5 0.00 0.00 0.00 61 1010.3
20260504005524 8 289 6.4 16.1 0.00 0.00 0.00 60 1010.3
20260504005026 8 283 4.8 25.7 0.00 0.00 0.00 60 1010.3
20260504004540 8 321 6.4 25.7 0.00 0.00 0.00 59 1010.3
20260504004024 8 293 9.7 25.7 0.00 0.00 0.00 59 1010.4
20260504003524 8 256 4.8 24.1 0.00 0.00 0.00 60 1010.5
20260504003040 8 310 8.0 24.1 0.00 0.00 0.00 59 1010.5
20260504002524 9 296 11.3 24.1 0.00 0.00 0.00 57 1010.3
20260504002026 9 289 3.2 17.7 0.00 0.00 0.00 57 1010.3
20260504001548 9 334 6.4 19.3 0.00 0.00 0.00 55 1010.2
20260504001025 9 275 9.7 22.5 0.00 0.00 0.00 55 1010.1
20260504000524 9 285 6.4 22.5 0.00 0.00 0.00 55 1010.2
20260504000048 9 259 6.4 16.1 0.00 0.00 0.00 54 1010.1
20260503235522 9 275 4.8 14.5 0.00 0.00 0.00 55 1010.0
20260503235024 8 289 6.4 14.5 0.00 0.00 0.00 55 1010.0
20260503234538 8 338 3.2 9.7 0.00 0.00 0.00 56 1009.9
20260503234022 8 290 1.6 19.3 0.00 0.00 0.00 57 1009.8
20260503233522 9 298 3.2 19.3 0.00 0.00 0.00 56 1009.8
20260503233040 8 296 4.8 16.1 0.00 0.00 0.00 55 1009.8
20260503232526 9 290 1.6 8.0 0.00 0.00 0.00 55 1009.7
20260503232024 9 317 1.6 8.0 0.00 0.00 0.00 56 1009.6
20260503231543 9 271 1.6 9.7 0.00 0.00 0.00 55 1009.6
20260503231025 9 315 3.2 12.9 0.00 0.00 0.00 54 1009.6
20260503230527 9 288 4.8 20.9 0.00 0.00 0.00 54 1009.6
20260503230045 10 263 3.2 20.9 0.00 0.00 0.00 54 1009.6
20260503225526 10 296 1.6 25.7 0.00 0.00 0.00 54 1009.7
20260503225026 10 290 8.0 29.0 0.00 0.00 0.00 53 1009.5
20260503224543 10 281 14.5 29.0 0.00 0.00 0.00 52 1009.5
20260503224028 10 268 11.3 20.9 0.00 0.00 0.00 53 1009.6
20260503223528 10 229 8.0 19.3 0.00 0.00 0.00 54 1009.7
20260503223041 10 326 8.0 22.5 0.00 0.00 0.00 55 1009.8
20260503222525 10 329 9.7 22.5 0.00 0.00 0.00 54 1009.8
20260503222027 10 285 9.7 30.6 0.00 0.00 0.00 53 1009.8
20260503221548 10 347 9.7 30.6 0.00 0.00 0.00 55 1009.8
20260503221026 9 294 8.0 22.5 0.00 0.00 0.00 55 1009.8
20260503220526 9 285 11.3 25.7 0.00 0.00 0.00 53 1009.9
20260503220038 9 287 4.8 32.2 0.00 0.00 0.00 55 1009.8
20260503215525 9 312 14.5 32.2 0.00 0.00 0.00 54 1009.8
20260503215026 9 289 12.9 29.0 0.00 0.00 0.00 54 1009.8
20260503214537 9 293 11.3 38.6 0.00 0.00 0.00 54 1009.8
20260503214026 9 347 9.7 38.6 0.00 0.00 0.00 54 1009.8
20260503213525 10 250 11.3 25.7 0.00 0.00 0.00 54 1009.8
20260503213043 10 292 8.0 25.7 0.00 0.00 0.00 54 1009.7
20260503212524 10 278 8.0 25.7 0.00 0.00 0.00 55 1009.7
20260503212025 10 282 4.8 25.7 0.00 0.00 0.00 57 1009.5
20260503211547 10 295 12.9 25.7 0.00 0.00 0.00 52 1009.5
20260503211024 10 274 6.4 20.9 0.00 0.00 0.00 58 1009.5
20260503210526 9 298 9.7 25.7 0.00 0.00 0.00 54 1009.6
20260503210049 9 299 9.7 25.7 0.00 0.00 0.00 54 1009.6
20260503205528 9 290 11.3 25.7 0.00 0.00 0.00 52 1009.6
20260503205026 10 9 8.0 19.3 0.00 0.00 0.00 52 1009.6
20260503204558 10 352 6.4 22.5 0.00 0.00 0.00 53 1009.6
20260503204026 10 311 6.4 22.5 0.00 0.00 0.00 54 1009.6
20260503203524 10 331 12.9 27.4 0.00 0.00 0.00 52 1009.7
20260503203049 9 319 8.0 27.4 0.00 0.00 0.00 54 1009.8
20260503202525 9 0 11.3 27.4 0.00 0.00 0.00 51 1009.8
20260503202026 9 292 11.3 27.4 0.00 0.00 0.00 51 1009.9
20260503201543 9 277 9.7 27.4 0.00 0.00 0.00 51 1009.8
20260503201025 8 320 8.0 30.6 0.00 0.00 0.00 52 1009.9
20260503200527 8 241 14.5 30.6 0.00 0.00 0.00 49 1009.8
20260503200046 9 255 17.7 30.6 0.00 0.00 0.00 47 1009.8
20260503195526 9 281 11.3 27.4 0.00 0.00 0.00 49 1009.8
20260503195022 10 248 8.0 29.0 0.00 0.00 0.00 49 1009.9
20260503194540 10 275 14.5 29.0 0.00 0.00 0.00 45 1009.9
20260503194024 10 5 4.8 17.7 0.00 0.00 0.00 50 1010.0
20260503193524 10 294 6.4 24.1 0.00 0.00 0.00 46 1010.0
20260503193044 11 314 11.3 24.1 0.00 0.00 0.00 46 1010.1
20260503192523 11 336 4.8 17.7 0.00 0.00 0.00 48 1010.0
20260503192022 10 344 6.4 20.9 0.00 0.00 0.00 52 1010.1
20260503191538 10 325 6.4 20.9 0.00 0.00 0.00 50 1010.1
20260503191026 9 300 11.3 24.1 0.00 0.00 0.00 47 1010.3
20260503190524 9 294 11.3 24.1 0.00 0.00 0.00 46 1010.3
20260503190049 9 327 11.3 27.4 0.00 0.00 0.00 44 1010.3
20260503185521 10 284 12.9 27.4 0.00 0.00 0.00 43 1010.4
20260503185025 10 267 9.7 20.9 0.00 0.00 0.00 48 1010.4
20260503184546 10 288 4.8 25.7 0.00 0.00 0.00 47 1010.5
20260503184024 10 346 6.4 25.7 0.00 0.00 0.00 49 1010.6
20260503183523 10 316 9.7 25.7 0.00 0.00 0.00 43 1010.7
20260503183037 10 327 6.4 32.2 0.00 0.00 0.00 48 1010.8
20260503182526 9 252 9.7 32.2 0.00 0.00 0.00 47 1010.7
20260503182024 9 330 3.2 24.1 0.00 0.00 0.00 52 1010.8
20260503181539 9 296 12.9 24.1 0.00 0.00 0.00 46 1010.9
20260503181024 9 339 12.9 22.5 0.00 0.00 0.00 47 1010.9
20260503180526 9 331 4.8 19.3 0.00 0.00 0.00 51 1011.0
20260503180038 8 35 6.4 27.4 0.00 0.00 0.00 50 1011.0
20260503175524 8 288 6.4 27.4 0.00 0.00 0.00 47 1011.0
20260503175021 8 288 12.9 27.4 0.00 0.00 0.00 47 1011.1
20260503174546 8 10 8.0 25.7 0.00 0.00 0.00 53 1011.0
20260503174023 9 305 4.8 16.1 0.00 0.00 0.00 50 1011.2
20260503173523 9 266 4.8 24.1 0.00 0.00 0.00 52 1011.3
20260503173120 9 323 4.8 24.1 0.00 0.00 0.00 54 1011.3
20260503172524 8 325 8.0 24.1 0.00 0.00 0.00 54 1011.3
20260503172021 9 295 4.8 20.9 0.00 0.00 0.00 51 1011.3
20260503171546 9 325 6.4 20.9 0.00 0.00 0.00 55 1011.4
20260503171025 8 213 6.4 25.7 0.00 0.00 0.00 50 1011.4
20260503170525 8 302 6.4 25.7 0.00 0.00 0.00 60 1011.4
20260503150529 5 279 8.0 22.5 0.00 0.00 0.00 61 1012.3
20260503131028 4 318 3.2 8.0 0.00 0.00 0.00 72 1012.5
20260503130525 4 308 3.2 16.1 0.00 0.00 0.00 72 1012.4